Weather in Lazirky

Ukraine / Poltava Region     50°04′59″N   32°39′50″E
temp.,
°C
wind,
m/s
gust,
m/s
humid.,
%
clouds,
%
prec.,
mm/h
press.,
hPa
HPBL,
m
12 may, wed
wed1200:00+8ne411883 0.0 1019280
03:00+6ne51190100 0.0 1018403
06:00+8ene6118746 0.0 1018737
09:00+9ene61084100 0.4 1018957
12:00+9ne5986100 0.3 1017978
15:00+9ene6986100 0.5 1016844
18:00+12ene467195 0.4 10141053
21:00+8ne359236 0.7 1013167
13 may, thu
thu1300:00+6e229545 0.0 101314
03:00+7sse129383 0.0 101234
06:00+7sse359458 0.0 1013132
09:00+10sse468058 0.0 1014561
12:00+14sse466078 0.1 10131523
15:00+16s565342 0.1 10131685
18:00+16sse366281 0.0 1012963
21:00+13e3675100 0.0 1012101
14 may, fri
fri1400:00+12ese4108364 0.1 1011208
03:00+12e51290100 0.5 1010309
06:00+12se48936 0.3 1009203
09:00+17sse46775 0.3 1009537
12:00+20s566142 0.0 10091117
15:00+21s575695 0.0 10091269
18:00+20sse58632 0.0 1008885
21:00+16s34811 0.1 100861
15 may, sat
sat1500:00+14s348799 0.0 100963
03:00+12s369490 0.0 1009100
06:00+12ssw359614 0.0 1009105
09:00+16wsw347937 0.0 1010597
12:00+19w556856 0.8 10111244
15:00+21w345427 1.7 10121765
18:00+19ssw116467 0.1 1012110
21:00+15ese337697 0.2 101225
16 may, sun
sun1600:00+14sse118297 0.1 101210
03:00+12ese11867 0.1 101310
06:00+13ese228925 0.3 101337
09:00+18se347170 0.3 1013365
12:00+22se4459100 0.0 10131128
15:00+24se454999 0.0 10112260
18:00+23ese3464100 0.0 1011159
21:00+18e347692 0.0 101157